GFSGL_925_temp_159.txt.gz
Temp
12 12 11 11 11 12 12 11 10 11 11 11 12 11 12 13 13 13 13 12 11 11 11 11 11 11 11 12 12 13 12 13 11 8 9 9 9 8 8 8 8 7 7
11 11 11 11 11 11 11 10 10 10 10 11 11 12 12 13 13 12 12 11 10 10 10 11 11 11 11 12 12 12 12 11 11 8 7 7 7 7 7 7 6 6 6
11 11 10 10 10 10 10 10 10 10 10 10 11 12 12 12 12 11 11 10 10 11 11 11 11 11 10 10 10 11 11 10 10 9 7 6 6 6 5 5 5 6 6
10 10 10 10 10 10 10 10 10 10 10 10 11 11 11 11 11 11 11 11 11 11 11 11 10 10 11 10 10 10 10 9 9 8 6 5 5 4 5 5 5 5 5
10 9 9 9 9 10 9 10 10 10 10 10 11 11 11 11 11 11 11 11 11 10 10 9 9 9 9 9 9 9 8 7 7 6 5 5 4 4 5 5 4 4 3
10 9 9 9 9 9 9 9 9 9 10 10 10 11 11 10 11 11 11 10 9 9 8 8 8 8 7 8 8 7 7 7 7 6 5 5 3 3 3 3 3 4 5
9 9 9 9 8 8 8 8 8 9 9 9 9 9 9 9 9 10 10 9 8 8 8 8 7 7 7 6 6 6 6 7 7 7 5 4 3 2 2 2 2 2 3
9 9 9 8 8 8 9 8 8 8 8 8 8 8 8 8 9 9 9 8 8 8 8 7 7 7 7 7 6 6 5 5 5 5 4 3 2 2 1 1 1 1 1
8 9 9 9 8 9 8 8 8 8 8 8 8 8 8 7 8 8 8 7 7 6 6 6 6 5 5 6 6 5 3 3 3 3 2 2 2 1 1 1 1 2 2
9 9 9 9 8 8 9 8 8 8 8 8 7 6 6 6 8 8 8 6 5 5 4 4 5 4 5 5 5 4 3 2 2 3 2 2 2 1 1 1 1 1 1
9 9 9 9 8 9 8 8 7 7 7 6 6 6 6 6 6 7 8 7 5 4 4 4 4 3 3 4 4 3 3 2 2 2 2 2 2 1 1 1 0 1 1
9 9 8 8 8 8 8 7 7 7 6 5 5 5 5 5 5 6 6 6 5 4 3 3 3 3 3 3 3 2 2 2 2 2 2 2 2 1 1 0 0 0 -0
9 9 8 8 8 7 7 6 6 6 6 4 4 4 4 5 5 4 5 5 5 4 3 2 2 2 3 2 1 2 2 1 1 1 1 1 1 0 0 -0 -0 -0 -0
8 8 8 8 7 7 7 7 7 6 5 5 5 4 4 4 4 4 3 3 3 3 3 3 2 1 2 1 1 1 1 0 0 0 0 -0 -0 -0 -1 -1 -1 -1 -1
8 7 6 7 7 6 7 7 7 7 8 7 5 5 4 4 4 5 5 4 4 4 3 2 2 1 1 0 0 0 0 -0 -0 -1 -1 -1 -1 -1 -1 -1 -2 -2 -1
7 6 6 7 6 6 6 5 6 7 7 6 6 7 5 5 5 4 4 4 4 3 3 2 1 1 1 0 0 -0 -1 -1 -1 -1 -2 -2 -2 -2 -2 -2 -2 -2 -2
7 6 7 8 5 5 4 5 3 3 5 6 6 6 6 5 4 4 4 4 3 3 3 2 1 1 0 -0 -0 -1 -1 -1 -1 -2 -2 -2 -2 -2 -3 -2 -2 -2 -1
9 8 8 7 5 5 5 4 4 3 3 3 5 5 5 5 4 4 4 3 2 3 3 2 1 1 0 0 -0 -1 -1 -2 -2 -3 -3 -3 -3 -3 -3 -3 -3 -3 -2
9 8 9 7 6 6 6 5 5 5 5 4 4 4 5 4 4 4 4 4 3 3 2 2 2 1 1 0 -0 -1 -1 -2 -2 -3 -3 -3 -4 -4 -4 -3 -3 -3 -3
9 10 8 7 6 6 6 6 5 5 5 4 4 5 4 3 3 3 3 4 4 3 2 2 2 1 1 -0 -1 -1 -2 -2 -3 -3 -3 -3 -4 -4 -3 -4 -4 -4 -4
7 8 8 7 6 6 6 6 6 6 5 5 6 6 6 5 4 4 4 4 4 3 3 2 2 1 0 -0 -1 -1 -2 -3 -3 -3 -4 -4 -4 -4 -4 -4 -4 -4 -4
7 6 6 6 6 6 6 6 6 6 6 6 6 5 5 5 5 5 4 4 4 3 3 2 2 1 0 -0 -1 -2 -2 -3 -3 -4 -4 -4 -4 -4 -4 -4 -4 -4 -4
7 6 6 6 7 6 6 7 7 7 7 7 6 6 5 5 5 5 5 4 4 3 3 2 2 1 0 -0 -1 -2 -2 -3 -3 -4 -4 -4 -4 -5 -5 -4 -4 -4 -4
7 7 6 6 6 6 6 6 7 7 7 7 6 6 6 6 5 5 5 4 4 3 3 2 1 1 0 -1 -2 -2 -3 -3 -3 -4 -4 -5 -5 -5 -4 -4 -4 -4 -4
7 7 6 6 6 6 6 7 7 7 7 7 7 6 6 6 5 5 4 4 4 3 3 2 1 1 0 -1 -2 -3 -4 -4 -4 -5 -5 -5 -5 -5 -5 -4 -4 -4 -4
7 7 7 6 6 7 7 7 7 7 7 7 7 7 7 6 5 5 4 4 4 3 3 2 1 0 -0 -1 -2 -3 -4 -4 -5 -5 -5 -5 -5 -5 -5 -4 -4 -4 -4

GFSGL_925_temp_165.txt.gz
Temp
14 13 13 13 13 13 13 12 13 13 12 12 12 13 13 13 14 14 14 13 13 13 13 12 12 11 11 11 12 13 13 14 13 11 11 10 10 10 9 9 9 8 8
13 12 12 12 12 12 11 11 11 11 11 11 11 12 12 13 13 13 14 13 13 13 12 12 11 11 11 11 12 12 12 11 11 12 9 9 8 8 7 8 7 7 7
13 12 12 12 11 11 11 10 10 10 11 10 11 11 12 12 13 13 13 13 12 12 11 10 10 10 11 10 11 10 10 10 11 10 7 7 6 6 6 6 5 5 5
14 13 12 11 11 11 10 10 10 10 10 10 11 11 11 12 12 12 12 11 11 10 10 10 10 10 10 10 10 10 10 10 10 9 7 5 5 5 4 5 5 5 5
13 11 11 11 10 10 10 10 10 10 10 10 10 11 11 11 11 11 10 10 10 10 10 10 10 10 10 10 10 9 9 8 8 6 5 5 4 4 5 5 5 6 5
12 11 10 10 10 9 9 9 9 10 10 10 10 10 10 10 10 10 10 10 10 9 9 9 9 9 9 9 9 8 8 7 7 7 6 8 7 7 6 7 7 7 8
12 11 10 11 10 9 9 9 9 9 10 10 10 10 9 9 10 10 10 9 9 9 8 8 8 7 7 7 7 6 6 7 8 9 8 7 6 5 5 6 6 6 6
12 11 10 11 10 9 8 8 9 9 9 9 9 9 9 8 9 10 9 9 8 8 8 7 7 7 8 8 7 7 6 6 6 6 5 5 4 4 4 4 4 4 4
12 11 10 10 9 8 8 8 8 9 8 8 8 8 7 7 8 9 8 8 8 8 8 8 7 6 6 7 7 6 5 4 3 4 4 3 3 3 3 4 4 5 5
11 10 10 9 8 8 8 7 8 8 8 8 7 7 7 7 7 8 8 8 8 7 6 6 5 5 6 7 7 7 6 6 5 4 4 4 4 3 3 3 3 3 3
11 10 9 9 8 8 8 7 8 9 9 9 9 8 8 7 8 9 9 9 9 8 7 5 4 4 5 6 6 6 5 5 4 5 5 5 5 4 3 3 2 2 2
9 9 9 9 9 8 8 8 9 10 10 9 9 8 7 7 7 8 8 8 8 8 6 5 4 4 4 4 3 3 4 4 4 5 5 4 4 4 3 2 1 1 1
9 8 9 10 11 11 10 10 10 10 10 10 9 8 7 6 5 6 6 6 7 6 5 4 3 3 3 3 3 3 4 4 4 5 4 4 2 1 1 1 1 1 1
9 8 9 11 11 11 10 10 10 10 10 9 9 9 8 7 6 5 5 4 4 4 3 4 3 3 3 3 3 3 3 2 3 3 3 2 1 1 1 1 0 0 1
9 8 9 11 11 10 10 10 10 10 9 9 9 8 8 7 7 6 6 6 5 4 4 4 4 4 4 3 3 3 2 3 2 2 1 -0 -0 -1 0 -0 0 0 -0
8 8 9 11 11 10 9 8 9 9 9 9 8 8 8 8 6 6 6 5 5 4 5 5 5 4 4 4 3 3 2 2 1 1 0 -1 -1 -0 -1 -1 -1 -1 -1
9 8 9 11 11 10 8 7 6 6 7 7 8 7 7 6 5 5 5 5 5 5 5 5 4 4 3 3 3 2 2 1 -0 0 -1 -1 -2 -2 -2 -2 -2 -2 -1
9 8 9 11 10 9 9 8 6 6 5 5 6 6 6 6 6 5 5 5 4 5 4 4 4 3 3 3 2 1 1 0 -1 -1 -2 -2 -3 -3 -3 -3 -3 -3 -2
8 8 10 10 10 9 9 8 8 8 7 6 5 4 5 5 5 5 5 5 5 4 4 4 3 3 2 2 1 1 1 0 -0 -1 -2 -2 -2 -3 -2 -3 -3 -3 -3
8 9 10 10 9 9 9 8 8 8 7 6 6 5 4 4 3 3 4 6 5 4 4 3 3 2 2 1 0 0 0 0 -0 -2 -2 -3 -3 -3 -3 -3 -4 -4 -3
8 8 10 9 9 9 8 8 8 8 8 7 7 6 5 5 5 5 5 5 5 4 3 3 2 2 1 0 0 -0 0 -0 -2 -3 -3 -3 -3 -2 -3 -3 -3 -3 -3
8 9 9 9 9 8 8 8 8 8 8 7 7 6 5 6 6 6 5 5 4 4 3 3 2 1 0 0 -0 -0 -0 -1 -3 -3 -3 -3 -2 -2 -2 -2 -2 -3 -4
9 9 9 9 9 8 8 8 8 8 8 8 7 5 5 7 6 6 5 5 4 4 3 3 2 1 0 -0 -0 -1 -1 -1 -2 -3 -3 -2 -2 -3 -2 -2 -3 -4 -4
10 9 10 9 8 8 8 8 8 8 8 8 7 6 5 7 6 6 5 4 4 4 3 3 2 2 0 -0 -0 -1 -1 -2 -2 -3 -3 -3 -3 -3 -3 -3 -3 -4 -4
10 10 10 9 8 8 8 8 8 8 8 8 7 6 6 6 6 5 4 4 4 4 4 3 2 2 1 0 -0 -1 -1 -2 -3 -3 -3 -3 -3 -3 -3 -3 -4 -4 -4
10 10 10 9 8 8 8 8 8 8 8 7 7 7 6 6 5 5 4 4 4 4 4 3 2 2 1 -0 -1 -0 -1 -2 -3 -3 -3 -3 -3 -3 -3 -3 -3 -3 -3

GFSGL_925_temp_168.txt.gz
Temp
14 14 14 14 14 14 14 13 13 13 12 12 12 13 13 14 14 14 14 14 13 13 13 13 12 12 11 11 12 11 11 12 11 11 11 11 11 11 10 10 9 9 8
14 13 13 13 12 12 11 11 11 12 12 11 11 12 13 13 14 14 14 13 13 13 13 12 12 11 11 11 11 11 11 11 11 9 9 9 9 9 9 8 8 8 7
13 12 12 12 11 11 11 10 10 10 10 11 11 11 12 12 13 14 13 13 13 13 12 12 11 10 10 10 10 11 11 12 10 9 7 7 7 7 7 6 6 6 6
13 13 12 12 11 11 10 11 10 11 10 10 11 11 11 12 12 13 13 12 12 11 11 10 10 10 10 10 10 10 10 9 9 8 6 5 5 5 5 5 5 5 5
13 13 11 11 11 10 10 10 10 10 10 10 11 11 11 11 12 12 11 10 10 10 10 9 9 10 10 10 10 9 9 8 8 7 6 5 5 5 5 6 6 6 6
12 11 11 11 10 10 9 10 10 10 10 10 10 10 10 10 10 10 10 9 9 9 9 9 9 9 9 9 8 8 8 8 8 8 7 7 6 6 6 6 6 6 5
12 10 10 10 9 9 9 10 10 10 10 9 10 10 9 9 10 10 10 10 9 9 9 8 7 7 8 7 7 7 7 7 8 7 6 5 5 4 5 5 5 5 4
11 11 11 10 9 9 9 9 9 10 9 9 9 9 9 8 10 10 9 9 8 8 8 8 8 8 7 7 7 6 6 6 6 6 5 4 4 3 3 4 4 4 4
11 11 11 10 9 8 8 9 8 9 9 8 8 8 8 8 9 9 9 8 8 7 7 7 7 7 7 7 6 5 4 4 4 4 4 4 3 3 3 3 3 3 2
11 10 10 9 8 8 8 8 8 8 8 8 7 7 7 7 8 8 8 7 7 7 6 6 6 6 7 7 6 5 5 4 4 4 4 4 4 3 3 3 2 2 2
10 9 9 8 8 8 8 8 8 8 7 7 7 7 7 8 8 8 8 7 6 5 5 5 5 6 6 6 6 5 5 5 5 5 4 4 4 3 2 2 1 2 2
10 9 8 8 8 8 8 9 9 9 8 7 7 7 8 8 9 9 8 7 6 5 4 4 4 4 4 5 4 4 4 4 5 5 4 3 2 2 1 1 1 1 1
9 9 8 8 8 8 9 9 10 9 8 7 6 6 6 7 7 8 7 6 5 5 4 3 3 3 3 3 4 4 4 4 4 3 2 2 1 1 1 1 1 1 1
9 9 9 10 9 9 9 10 10 9 9 8 6 5 5 6 6 6 6 5 4 4 4 4 3 3 3 3 3 3 3 3 2 2 1 0 0 0 0 0 0 -0 0
9 9 10 11 10 10 10 10 10 10 9 8 7 6 6 5 5 6 6 5 5 5 4 4 4 3 3 3 2 2 2 2 1 1 0 -1 -1 -1 -1 -1 -1 -1 -1
8 9 10 10 10 10 10 9 10 9 9 9 8 8 7 6 6 6 6 6 5 5 4 4 4 4 3 3 2 2 1 1 0 -0 -1 -1 -1 -1 -1 -2 -1 -1 -2
9 9 10 10 9 9 8 8 7 8 9 8 8 8 7 6 6 6 6 5 5 5 5 4 4 3 3 3 2 2 1 -0 -0 -1 -1 -2 -3 -3 -3 -2 -2 -2 -2
9 9 10 10 9 8 8 7 7 7 6 6 7 7 7 6 6 6 6 6 5 5 4 4 3 3 3 2 2 1 0 -0 -1 -2 -2 -2 -3 -3 -3 -3 -3 -3 -3
9 9 10 10 9 8 7 7 6 6 6 5 5 5 5 6 6 6 6 6 5 4 4 3 3 3 2 1 1 1 0 -0 -1 -2 -2 -3 -3 -3 -3 -3 -4 -3 -3
9 9 10 9 9 8 7 7 6 6 5 4 4 3 4 5 4 5 5 5 5 4 4 3 3 2 2 1 0 0 -0 -0 -1 -2 -3 -3 -3 -3 -3 -3 -3 -3 -3
8 9 9 9 9 8 8 7 7 6 5 4 4 4 5 5 5 5 5 5 5 4 4 3 3 2 1 1 0 -0 -0 -1 -2 -3 -3 -3 -3 -3 -3 -3 -3 -3 -4
8 9 9 8 8 8 8 8 8 7 6 6 5 4 5 5 5 5 5 5 5 4 4 4 3 2 1 1 0 -0 -0 -1 -2 -3 -3 -3 -2 -3 -2 -3 -3 -4 -4
8 9 9 8 8 8 8 8 8 7 7 6 6 5 5 5 5 5 5 5 5 4 4 4 3 2 1 1 0 -0 -1 -1 -2 -2 -3 -3 -2 -3 -3 -3 -3 -4 -4
8 9 9 8 8 8 8 8 8 8 7 7 6 5 5 6 6 6 5 5 5 4 4 4 3 2 1 1 1 -0 -1 -1 -2 -2 -3 -3 -3 -3 -3 -3 -4 -4 -3
8 9 9 8 7 7 8 8 8 8 7 7 6 6 6 6 6 6 5 5 5 5 4 4 3 2 2 2 1 0 -1 -1 -2 -2 -3 -3 -3 -3 -3 -3 -3 -3 -4
9 9 9 8 8 7 7 7 8 8 8 7 7 6 6 6 6 6 5 5 5 4 4 4 3 3 2 2 1 1 -0 -1 -2 -2 -3 -3 -3 -3 -3 -3 -3 -3 -4

GFSGL_925_temp_174.txt.gz
Temp
14 14 14 14 14 14 15 15 14 14 13 14 14 14 14 14 14 14 14 14 13 13 13 13 13 13 12 12 11 11 11 12 10 8 9 8 9 9 10 10 10 10 9
14 13 14 14 14 14 14 14 13 13 12 12 13 13 14 14 14 14 14 13 13 13 13 13 12 12 12 12 11 11 11 12 11 8 7 8 8 8 8 8 8 8 8
13 13 12 12 13 12 12 12 11 11 11 11 11 12 13 13 14 14 13 13 13 13 13 13 12 12 11 11 11 11 11 11 10 10 7 7 6 6 7 7 7 7 7
12 12 12 12 12 11 11 10 10 10 10 11 11 11 12 12 12 13 13 13 12 12 12 12 11 11 10 10 10 10 10 10 10 9 6 5 6 6 6 6 6 5 5
12 12 11 11 11 10 10 10 10 10 11 11 11 11 11 12 12 12 12 12 11 10 10 10 10 10 10 10 10 10 10 9 8 7 6 5 5 5 5 5 5 5 4
12 11 11 11 10 10 10 10 10 10 10 11 11 11 11 11 11 12 11 10 9 9 10 10 10 9 9 9 9 9 8 9 8 7 5 4 4 4 4 5 4 4 3
11 10 10 10 10 10 10 10 10 10 10 10 10 10 10 9 11 11 10 9 9 9 9 9 8 8 8 8 7 7 7 8 7 7 5 4 4 4 4 4 4 3 2
10 10 10 10 9 9 10 10 9 9 9 9 9 9 9 9 9 10 9 9 8 8 8 8 8 8 8 8 7 6 6 6 5 5 4 3 3 3 3 3 3 2 2
10 10 10 9 9 9 9 9 9 9 9 9 9 9 8 8 9 9 9 8 8 8 8 8 7 7 7 7 7 5 4 4 4 4 3 3 2 2 2 3 2 2 1
10 10 10 9 9 9 9 9 8 9 9 8 8 8 8 7 8 9 9 8 7 6 6 6 6 6 6 6 6 5 4 3 3 3 3 2 2 1 1 1 1 1 1
10 10 9 9 9 9 8 8 8 8 8 7 7 7 7 7 8 9 9 8 7 6 6 6 5 5 5 5 5 4 3 3 3 3 2 1 1 1 1 1 1 1 1
10 9 9 9 8 8 8 7 7 7 7 7 7 7 7 7 8 8 8 7 7 6 5 5 5 4 4 4 4 3 4 3 2 1 1 0 0 0 0 0 0 0 -0
10 8 8 8 8 8 7 7 7 7 7 7 7 6 7 6 6 6 7 6 5 5 4 4 4 4 3 3 2 3 3 3 2 1 0 -0 -0 -0 0 -0 -0 -0 -1
8 8 8 8 7 7 7 7 7 7 7 6 6 6 6 6 5 5 4 4 4 4 3 3 3 3 2 2 3 2 2 1 1 -0 -1 -1 -1 -1 -1 -1 -2 -2 -2
8 8 7 7 7 7 7 7 8 8 9 8 7 7 6 5 5 6 5 4 4 3 3 3 3 2 2 2 1 1 1 0 -0 -1 -1 -1 -2 -2 -2 -2 -2 -3 -3
7 7 7 8 7 8 8 8 8 9 9 10 9 8 7 7 6 5 5 4 4 4 3 3 2 2 1 1 0 0 -0 -0 -1 -1 -2 -3 -3 -2 -3 -3 -3 -3 -3
8 8 8 8 8 8 8 8 6 6 8 8 8 7 7 6 5 5 5 4 4 4 4 3 2 2 1 1 0 0 -1 -1 -2 -2 -3 -3 -3 -3 -3 -3 -3 -3 -4
9 9 8 8 8 8 8 8 8 6 5 5 6 7 6 6 5 5 4 4 4 4 4 3 2 2 1 1 0 -0 -1 -1 -2 -2 -3 -3 -3 -3 -3 -4 -3 -3 -4
9 8 8 8 8 9 9 8 8 7 6 5 5 6 6 5 5 5 5 5 5 4 3 3 2 2 1 1 0 -0 -0 -1 -2 -2 -3 -3 -3 -3 -3 -3 -4 -4 -4
9 8 8 9 9 8 8 7 7 6 6 5 5 5 5 5 4 5 5 5 5 4 4 3 2 2 1 1 1 0 -0 -1 -2 -2 -3 -3 -3 -3 -3 -4 -4 -4 -4
8 8 8 8 8 8 7 6 7 6 5 5 5 5 5 5 5 5 5 5 5 5 4 3 2 2 2 1 1 1 -0 -1 -2 -2 -2 -3 -3 -3 -3 -4 -4 -4 -4
8 7 7 7 7 7 6 6 6 6 6 5 5 5 5 6 6 6 5 5 5 5 4 4 3 2 2 2 2 1 0 -1 -1 -2 -2 -3 -3 -3 -3 -4 -4 -4 -4
8 7 7 7 7 6 6 6 6 6 6 6 5 5 4 5 6 6 6 5 5 5 4 4 3 2 2 2 2 1 1 -0 -1 -2 -2 -3 -3 -3 -3 -4 -4 -4 -5
8 7 7 7 7 6 6 6 6 6 6 6 5 5 5 5 6 6 6 5 5 5 5 4 3 3 2 2 2 1 1 -0 -1 -2 -2 -3 -3 -3 -3 -4 -4 -4 -4
8 8 7 7 6 6 6 6 5 5 6 6 5 5 6 6 6 6 5 5 5 5 5 4 3 3 2 2 2 2 1 -0 -1 -2 -2 -2 -3 -3 -3 -4 -4 -4 -4
8 8 7 7 6 6 6 6 6 5 6 6 6 6 7 7 7 6 6 5 5 5 5 4 3 3 3 2 2 2 1 -1 -1 -2 -2 -3 -3 -3 -3 -3 -4 -4 -4